Regional Weather Roundup
Issued by NWS Goodland, KS

Home | Current Version | Previous Version | Graphics & Text | Print | Product List | Glossary On
Versions: 1 2 3 4 5 6 7 8 9 10 11 12 13 14 15 16 17 18 19 20 21 22 23 24 25 26 27 28 29 30 31 32 33 34 35 36 37 38 39 40 41 42 43 44 45 46 47 48 49 50
000
ASUS43 KGLD 291559
RWRGLD

GOODLAND FORECAST AREA HOURLY WEATHER ROUNDUP
NATIONAL WEATHER SERVICE GOODLAND KS
1000 AM MDT MON AUG 29 2016

...OFFICIAL OBSERVATIONS...

CITY           SKY/WX    TMP DP  RH WIND       PRES   REMARKS
GOODLAND KS    CLOUDY    67  61  81 S12       30.26S
HILL CITY KS   LGT RAIN  69  68  96 SW6       30.24R FOG
IMPERIAL NEB   CLOUDY    69  64  84 SW8       30.22F
MCCOOK NEB     CLOUDY    72  66  81 S7        30.21R
AKRON CO       SUNNY     76  46  34 N6        30.29R
BURLINGTON CO  PTSUNNY   67  59  75 SE14      30.28R
LIMON CO       CLOUDY    74  49  41 NE13      30.32R
$$

...UNOFFICIAL OBSERVATIONS...

CITY           SKY/WX    TMP DP  RH WIND       PRES   REMARKS
COLBY KS       CLOUDY    72  66  83 SE12      30.27S
LENORA KS        N/A     69  32  25 MISG        N/A
NORTON KS      DRIZZLE   73  64  73 S8        30.21S
SHARON SPRINGS   N/A     68  63  84 S6          N/A
TRENTON NEB      N/A     69  32  25 MISG        N/A
KIT CARSON CO    N/A     69  59  69 MISG        N/A
YUMA CO          N/A     72  55  55 E7          N/A
$$




USA.gov is the U.S. government's official web portal to all federal, state and local government web resources and services.